TimeMST,TemperatureF,Dew PointF,Humidity,Sea Level PressureIn,VisibilityMPH,Wind Direction,Wind SpeedMPH,Gust SpeedMPH,PrecipitationIn,Events,Conditions,WindDirDegrees,DateUTC
12:55 AM,57.9,44.1,60,30.10,10.0,Calm,Calm,-,N/A,,Partly Cloudy,0,2012-11-19 07:55:00
1:55 AM,57.9,44.1,60,30.09,10.0,Calm,Calm,-,N/A,,Partly Cloudy,0,2012-11-19 08:55:00
2:55 AM,55.9,43.0,62,30.10,10.0,Calm,Calm,-,N/A,,Partly Cloudy,0,2012-11-19 09:55:00
3:55 AM,55.0,43.0,64,30.09,10.0,Calm,Calm,-,N/A,,Clear,0,2012-11-19 10:55:00
4:55 AM,55.0,43.0,64,30.10,10.0,Calm,Calm,-,N/A,,Clear,0,2012-11-19 11:55:00
5:55 AM,54.0,42.1,64,30.11,10.0,Calm,Calm,-,N/A,,Clear,0,2012-11-19 12:55:00
6:55 AM,54.0,43.0,66,30.13,10.0,Calm,Calm,-,N/A,,Clear,0,2012-11-19 13:55:00
7:55 AM,55.9,41.0,57,30.15,10.0,Calm,Calm,-,N/A,,Partly Cloudy,0,2012-11-19 14:55:00
8:55 AM,60.1,42.1,51,30.18,10.0,NNE,4.6,-,N/A,,Partly Cloudy,30,2012-11-19 15:55:00
9:55 AM,64.9,44.1,47,30.19,10.0,NE,4.6,-,N/A,,Partly Cloudy,40,2012-11-19 16:55:00
10:55 AM,71.1,45.0,39,30.19,10.0,NNW,3.5,-,N/A,,Partly Cloudy,340,2012-11-19 17:55:00
11:55 AM,75.0,45.0,34,30.18,10.0,North,3.5,-,N/A,,Partly Cloudy,360,2012-11-19 18:55:00
12:55 PM,77.0,43.0,30,30.15,10.0,Calm,Calm,-,N/A,,Partly Cloudy,0,2012-11-19 19:55:00
1:55 PM,79.0,43.0,28,30.13,10.0,NW,5.8,-,N/A,,Partly Cloudy,310,2012-11-19 20:55:00
2:55 PM,77.0,42.1,29,30.11,10.0,WSW,4.6,-,N/A,,Partly Cloudy,240,2012-11-19 21:55:00
3:55 PM,77.0,39.9,26,30.11,10.0,WSW,4.6,-,N/A,,Partly Cloudy,240,2012-11-19 22:55:00
4:55 PM,75.9,41.0,29,30.11,10.0,West,5.8,-,N/A,,Partly Cloudy,260,2012-11-19 23:55:00
5:55 PM,73.0,42.1,33,30.11,10.0,WSW,3.5,-,N/A,,Partly Cloudy,250,2012-11-20 00:55:00
6:55 PM,70.0,42.1,36,30.12,10.0,Calm,Calm,-,N/A,,Clear,0,2012-11-20 01:55:00
7:55 PM,66.9,43.0,42,30.12,10.0,WNW,3.5,-,N/A,,Clear,300,2012-11-20 02:55:00
8:55 PM,64.0,42.1,45,30.13,10.0,Calm,Calm,-,N/A,,Clear,0,2012-11-20 03:55:00
9:55 PM,62.1,42.1,48,30.14,10.0,Calm,Calm,-,N/A,,Clear,0,2012-11-20 04:55:00
10:55 PM,62.1,42.1,48,30.13,10.0,Calm,Calm,-,N/A,,Clear,0,2012-11-20 05:55:00
11:55 PM,60.1,39.9,47,30.12,10.0,North,4.6,-,N/A,,Clear,10,2012-11-20 06:55:00